Flag for U.S.A. Weather past 2 weeks in Houston, Texas, U.S.A.

Now
72 °F

Passing clouds.


Feels Like: 75 °F
Forecast: 61 / 82 °F
Wind: 3 mph from Northeast

Location: Houston Hobby Airport

Current Time: Oct 20, 2014 at 9:14:28 PM

Latest Report: Oct 20, 2014 at 8:53 PM


Visibility: 10 mi

Pressure: 30.01 "Hg

Humidity: 66%

Dew point: 60 °F

Location of HoustonLocation

Historic Weather in Houston — Graph

°F

Houston temperature yesterday

Maximum temperature yesterday: 79 °F (at 1:53 PM)
Minimum temperature yesterday: 66 °F (at 7:53 AM)
Average temperature yesterday: 72 °F

Past Weeks' High & Low Weather Summary

 TemperatureHumidityPressure
High90 °F (Oct 7, 2:53 PM)100% (Oct 7, 2:53 AM)30.14 "Hg (Oct 7, 2:53 AM)
Low54 °F (Oct 15, 5:53 AM)26% (Oct 15, 3:53 PM)29.73 "Hg (Oct 13, 7:53 AM)
Average74 °F75%29.98 "Hg
* Reported Oct 5 7:53 PM — Oct 20 7:53 PM, Houston, Weather by CustomWeather, © 2014

Note: Actual official high and low records may vary slightly from our data, if they occured in-between our weather recording intervals... More about our weather records

Advertising

Houston weather history for previous 24 hours

 ConditionsComfort  
Time TempWeatherWind HumidityBarometerVisibility
7:53 PM
Oct 20
73 °FPassing clouds.No wind69%30.00 "Hg10 mi
6:53 PM75 °FScattered clouds.3 mph66%29.99 "Hg10 mi
5:53 PM78 °FScattered clouds.6 mph58%29.99 "Hg10 mi
4:53 PM80 °FScattered clouds.5 mph52%29.99 "Hg10 mi
3:53 PM80 °FScattered clouds.6 mph52%29.99 "Hg10 mi
2:53 PM81 °FScattered clouds.8 mph53%30.01 "Hg10 mi
1:53 PM80 °FScattered clouds.7 mph54%30.03 "Hg10 mi
12:53 PM79 °FScattered clouds.8 mph56%30.05 "Hg10 mi
11:53 AM77 °FScattered clouds.6 mph60%30.07 "Hg10 mi
10:53 AM76 °FPassing clouds.6 mph64%30.08 "Hg10 mi
9:53 AM71 °FScattered clouds.5 mph71%30.07 "Hg10 mi
8:53 AM67 °FScattered clouds.9 mph79%30.06 "Hg10 mi
7:53 AM64 °FPassing clouds.5 mph87%30.04 "Hg10 mi
6:53 AM64 °FPassing clouds.6 mph87%30.02 "Hg10 mi
5:53 AM66 °FPassing clouds.7 mph81%30.01 "Hg10 mi
4:53 AM66 °FClear.5 mph81%30.01 "Hg10 mi
3:53 AM66 °FClear.6 mph84%30.01 "Hg10 mi
2:53 AM67 °FPassing clouds.3 mph85%30.03 "Hg10 mi
1:53 AM68 °FPassing clouds.3 mph84%30.03 "Hg10 mi
12:53 AM69 °FPassing clouds.6 mph87%30.04 "Hg10 mi
11:53 PM
Oct 19
70 °FPassing clouds.6 mph84%30.05 "Hg10 mi
9:53 PM71 °FPassing clouds.3 mph84%30.05 "Hg10 mi
Weather by CustomWeather, © 2014

See weather overviewHow to use our weather pages